Regional Weather Roundup
Issued by NWS Midland/Odessa, TX

Skip options and go directly to product.
Home | Oldest Version | Next Version | Current Version | All | Text Only | Save Text | Print | Product List | Glossary On

Skip product version selection by date and time.   
144
ASUS44 KMAF 020501
RWRMAF
MIDLAND AREA WEATHER ROUNDUP
NATIONAL WEATHER SERVICE MIDLAND TX
1200 AM CDT WED SEP 02 2015

...IN SOUTHWEST TEXAS AND SOUTHEAST NEW MEXICO...

CITY           SKY/WX    TMP DP  RH WIND       PRES   REMARKS
ALPINE         CLEAR     74  52  45 S8        30.21R
ANDREWS        FAIR      73  54  50 SE5       30.09S
ARTESIA        PTCLDY    79  50  36 S9        30.08S
BIG SPRING     CLEAR     78  50  38 SE12      30.09R
CARLSBAD       PTCLDY    80  49  33 S7        30.06R
DRYDEN           N/A     81  57  43 VRB3      30.03S
FORT STOCKTON  CLEAR     77  51  40 SE10      30.07R
GUAD PASS      MOCLDY    74  48  39 NE31G38   30.20F
HOBBS            N/A     70  50  49 E7        30.11S
MARFA          CLEAR     70  48  46 NE3       30.21R
MIDLAND AIRPK  CLEAR     82  51  34 SE5       30.07S
MIDLAND INTL   CLEAR     76  52  43 S7        30.06S
ODESSA         NOT AVBL
PECOS          CLEAR     81  49  33 SE9       30.03S
PRESIDIO       NOT AVBL
SEMINOLE       CLEAR     72  51  48 S6        30.10S
SNYDER         CLEAR     78  55  44 SE7       30.06S
WINK           CLEAR     78  52  40 SE8       30.04R
$$
...OTHER STATIONS IN TEXAS...

CITY           SKY/WX    TMP DP  RH WIND       PRES   REMARKS
ABILENE        CLEAR     79  62  56 SE12      30.05R
AMARILLO       PTCLDY    72  55  55 SE9       30.10R
AUSTIN         PTCLDY    73  66  78 CALM      30.05R
BROWNSVILLE    CLEAR     78  75  90 E3        29.99R
CORPUS CHRISTI PTCLDY    76  73  91 SE6       30.00S
DALLAS FTW     PTCLDY    82  67  60 SE13      30.03R
DEL RIO        CLEAR     83  65  54 E13       29.99R
EL PASO        MOCLDY    87  41  19 W7        30.05R
HOUSTON INT    MOCLDY    74  72  93 SE6       30.04S
LUBBOCK        CLEAR     73  54  51 SE9       30.09R
SAN ANGELO     CLEAR     75  57  53 SE5       30.03R
SAN ANTONIO    PTCLDY    77  67  71 SE9       30.06R
WACO           CLEAR     78  67  68 S15       30.05R
WICHITA FALLS  NOT AVBL
$$
...OTHER LOCATIONS IN NEW MEXICO...

CITY           SKY/WX    TMP DP  RH WIND       PRES   REMARKS
ALAMAGORDO     MOCLDY    75  41  29 NW3       30.08S
ALBUQUERQUE    MOCLDY    76  42  29 S7        30.18R
CANNON AFB     PTCLDY    76  52  42 S1        30.15S
CLOVIS         PTCLDY    72  50  46 W7        30.16S
HOLLOMAN AFB   PTCLDY    76  47  36 NE7       30.06R
ROSWELL        MOCLDY    80  51  36 S8        30.07R
RUIDOSO        PTCLDY    64  45  48 MISG      30.34R
SANTA FE       MOCLDY    70  42  36 CALM      30.25
TRUTH OR CONSE CLEAR     74  47  38 W7        30.14R
TUCUMCARI      MOCLDY    76  52  43 SE6       30.08S
$$

USA.gov is the U.S. government's official web portal to all federal, state and local government web resources and services.